Regional Weather Roundup
Issued by NWS

Home | Current Version | Previous Version | Graphics & Text | Print | Product List | Glossary On
Versions: 1 2 3 4 5 6 7 8 9 10 11 12 13 14 15 16 17 18 19 20 21 22 23 24 25 26 27 28 29 30 31 32 33 34 35 36 37 38 39 40 41 42 43 44 45 46 47 48 49 50
000
ASUS45 KTFX 312210
RWRMT
MONTANA REGIONAL WEATHER ROUNDUP
NATIONAL WEATHER SERVICE GREAT FALLS MT
400 PM MDT MON AUG 31 2015

NOTE: "FAIR" INDICATES FEW OR NO CLOUDS BELOW 12000 FEET WITH NO
SIGNIFICANT WEATHER AND/OR OBSTRUCTIONS TO VISIBILITY.

MTZ001>007-043-312300-
WEST OF THE DIVIDE

CITY           SKY/WX    TMP DP  RH WIND       PRES   REMARKS
KALISPELL      MOCLDY    69  39  33 W10       29.95F
MISSOULA       PTSUNNY   71  41  33 CALM      29.98F
BUTTE          SUNNY     73  32  22 W17G24    30.02F
MULLAN PASS    PTSUNNY   52  41  66 VRB5      30.08F
DEER LODGE       N/A     72  37  28 NW7       30.02F
EUREKA           N/A     63  43  48 SW3       29.96F
HAMILTON         N/A     73  39  29 N8        29.96F
LIBBY            N/A     64  43  45 N6        29.96F
$$

MTZ008-052>055-312300-
SOUTHWEST MONTANA

CITY           SKY/WX    TMP DP  RH WIND       PRES   REMARKS
BOZEMAN        MOSUNNY   76  36  23 N5        29.96F
DILLON         SUNNY     78  31  17 W16       29.99F
W YELLOWSTONE  MOSUNNY   64  32  29 SW17G24   30.14F
$$

MTZ009-010-012-014-046-048-049-054-312300-
EAST SLOPES AND CENTRAL MONTANA

CITY           SKY/WX    TMP DP  RH WIND       PRES   REMARKS
CUT BANK       CLOUDY    62  36  37 W16G25    29.88F
GREAT FALLS    SUNNY     76  33  21 SW25      29.88F
MALMSTROM AFB  SUNNY     75  34  22 SW22G33   29.89S
HELENA         SUNNY     80  36  20 W14       29.91F
CONRAD           N/A     73  37  26 MISG      29.92S
$$

MTZ011-013-016-021-045-047-050-051-312300-
NORTH CENTRAL MONTANA

CITY           SKY/WX    TMP DP  RH WIND       PRES   REMARKS
HAVRE          MOSUNNY   79  35  20 W16G23    29.80F
LEWISTOWN      MOSUNNY   76  33  21 W12       29.91F
N BAR RANCH      N/A     72  34  25 SW9       29.96S
CHINOOK          N/A     79  36  21 W18G28    29.79F
FORT BENTON      N/A     79  36  21 SW16G26   29.84F
$$

MTZ017>020-022>027-061-062-312300-
NORTHEAST MONTANA

CITY           SKY/WX    TMP DP  RH WIND       PRES   REMARKS
GLASGOW        PTSUNNY   72  37  28 SW12      29.84F
JORDAN           N/A     77  35  21 NW14G21   29.86F
SIDNEY         SUNNY     81  34  18 SW15G21   29.85S
WOLF POINT     PTSUNNY   75  40  28 W14       29.85F
MALTA            N/A     77  38  24 S10       29.80F
PLENTYWOOD       N/A     73  36  25 W20G25    29.83S
$$

MTZ028>42-056>058-312300-
SOUTHCENTRAL AND SOUTHEAST MONTANA

CITY           SKY/WX    TMP DP  RH WIND       PRES   REMARKS
BAKER          SUNNY     79  42  26 SW9       29.92F
BILLINGS       PTSUNNY   80  34  19 VRB3      29.90F
LIVINGSTON     MOSUNNY   82  32  16 SW14G24   29.93F
MILES CITY     SUNNY     81  43  26 S9        29.87F
EKALAKA          N/A     77  41  27 SW9       29.93F
FORSYTH          N/A     82  37  20 NW7       29.86F
LAUREL           N/A     83  36  18 SW5       29.89F
$$

REGIONAL REPORTS...DAKOTAS

CITY           SKY/WX    TMP DP  RH WIND       PRES   REMARKS
WILLISTON      SUNNY     78  33  19 W18G29    29.84F
MINOT          SUNNY     77  39  25 SW14      29.82S
DICKINSON      SUNNY     78  36  21 W13G24    29.89F
CROSBY           N/A     75  37  25 W15G25    29.82R
BISMARCK       MOSUNNY   84  42  22 NW10      29.87S
GRAND FORKS    CLOUDY    81  57  43 W12       29.77S
FARGO          CLOUDY    80  65  59 CALM      29.81R
BUFFALO SD       N/A     78  43  28 E7        29.87F
RAPID CITY     PTSUNNY   75  57  53 SE13      29.97F
$$

REGIONAL REPORTS...WYOMING/IDAHO/WASHINGTON

CITY           SKY/WX    TMP DP  RH WIND       PRES   REMARKS
GILLETTE       SUNNY     84  39  20 S8        29.92F
SHERIDAN       SUNNY     82  42  24 E6        29.91F
BUFFALO WY     SUNNY     84  41  21 E10G23    29.94F
CODY           SUNNY     81  28  15 SW7       29.96F
YELLOWSTONE LA   N/A     63  25  23 W10G22    30.23F
IDAHO FALLS    SUNNY     79  31  17 SW14G21   30.06F
SALMON         SUNNY     77  39  25 N7        29.92F
BOISE          SUNNY     81  40  23 CALM      29.97F
SPOKANE        CLOUDY    69  44  40 S12G20    29.95F
$$

REGIONAL REPORTS...ALBERTA

CITY           SKY/WX    TMP DP  RH WIND       PRES   REMARKS
CALGARY        PTSUNNY   68  37  32 SW7       29.70F
LETHBRIDGE     PTSUNNY   66  39  37 W32G46    29.79R
MEDICINE HAT   CLOUDY    75  39  27 SW24G36   29.73R
WATERTON GATE    N/A     59  39  47 SW18G28     N/A
CARDSTON         N/A     63  37  39 W14G28      N/A
MILK RIVER       N/A     63  37  39 SW22G31     N/A
$$

REGIONAL REPORTS...SASKATCHEWAN

CITY           SKY/WX    TMP DP  RH WIND       PRES   REMARKS
SWIFT CURRENT  SUNNY     75  36  23 W25G35    29.72S
REGINA         PTSUNNY   73  45  35 W14G23    29.72S
SASKATOON      PTSUNNY   77  36  22 W10G18    29.64S
CYPRESS HILLS    N/A     66  34  30 W16G26      N/A
ROCKGLEN         N/A     72  39  30 SW16G23     N/A
ASSINIBOIA       N/A     72  34  25 W9          N/A
$$


USA.gov is the U.S. government's official web portal to all federal, state and local government web resources and services.